Terminal Aerodrome Forecast
Issued by NWS

Home | Current Version | Previous Version | Text Only | Print | Product List | Glossary Off
Versions: 1 2 3 4 5 6 7 8 9 10 11 12 13

000
FTUS45 KGGW 221100
TAFGDV
TAF
KGDV 221127Z 2212/2312 06006KT P6SM BKN150
     FM221600 15015G25KT P6SM SCT100 BKN200
     FM222300 13020G30KT P6SM BKN120
     FM230500 10017KT P6SM BKN060
      AMD LTD TO CLD VIS AND WIND=

USA.gov is the U.S. government's official web portal to all federal, state and local government web resources and services.